QPF
0.04 0.04 0.02 0.02 0.03 0.03 0.04 0.05 0.04 0.03 0.02 0.02 0.03 0.03 0.03 0.04 0.05 0.05 0.03 0.02 0.01 0.02 0.03 0.03 0.03 0.02 0.02 0.02 0.02 0.01 0.02 0.02 0.01 0.02 0.02 0.03 0.05 0.06
0.04 0.05 0.04 0.04 0.04 0.04 0.04 0.04 0.04 0.05 0.04 0.02 0.03 0.04 0.05 0.06 0.06 0.04 0.03 0.02 0.02 0.02 0.02 0.02 0.02 0.01 0.01 0.01 0.01 0.01 0.01 0.01 0.01 0.01 0.01 0.01 0.02 0.03
0.04 0.04 0.05 0.05 0.05 0.05 0.04 0.04 0.04 0.05 0.05 0.03 0.04 0.05 0.08 0.06 0.06 0.05 0.03 0.02 0.01 0.01 0.01 0.02 0.01 0.02 0.02 0.02 0.01 0.01 0.01 0.01 0.01 0.01 0.01 0.01 0.01 0.01
0.04 0.04 0.04 0.04 0.04 0.04 0.04 0.04 0.05 0.05 0.05 0.04 0.04 0.06 0.07 0.06 0.05 0.04 0.03 0.03 0.02 0.02 0.02 0.02 0.01 0.01 0.01 0.01 0.01 0.01 0.01 0.01 0.01 0.01 0.01 0.01 0.01 0.01
0.04 0.04 0.05 0.06 0.05 0.05 0.06 0.05 0.06 0.07 0.06 0.05 0.04 0.06 0.05 0.05 0.05 0.06 0.04 0.03 0.03 0.04 0.04 0.04 0.04 0.03 0.02 0.01 0.01 0.01 0.01 0.01 0.01 0.01 0.01 0.01 0.02 0.02
0.04 0.03 0.04 0.05 0.05 0.07 0.07 0.07 0.08 0.07 0.07 0.06 0.04 0.05 0.04 0.04 0.06 0.06 0.04 0.02 0.03 0.04 0.05 0.06 0.06 0.05 0.04 0.03 0.03 0.02 0.01 0.01 0.01 0.01 0.02 0.02 0.02 0.03
0.02 0.02 0.03 0.05 0.06 0.07 0.06 0.06 0.07 0.07 0.07 0.06 0.05 0.04 0.03 0.03 0.05 0.05 0.05 0.05 0.04 0.04 0.05 0.05 0.05 0.04 0.04 0.03 0.03 0.02 0.02 0.01 0.01 0.01 0.01 0.02 0.03 0.04
0.02 0.03 0.03 0.05 0.05 0.05 0.05 0.05 0.05 0.04 0.04 0.04 0.04 0.05 0.04 0.04 0.05 0.06 0.05 0.05 0.04 0.03 0.05 0.05 0.05 0.05 0.04 0.03 0.03 0.03 0.02 0.01 0.01 0.02 0.03 0.04 0.04 0.05
0.02 0.03 0.02 0.03 0.04 0.03 0.03 0.04 0.04 0.04 0.04 0.04 0.03 0.03 0.05 0.05 0.06 0.05 0.05 0.04 0.04 0.04 0.06 0.06 0.06 0.04 0.03 0.03 0.04 0.03 0.03 0.02 0.03 0.05 0.06 0.07 0.06 0.06
0.04 0.04 0.04 0.04 0.03 0.03 0.03 0.03 0.03 0.03 0.04 0.04 0.03 0.03 0.04 0.05 0.05 0.05 0.04 0.04 0.03 0.03 0.04 0.05 0.06 0.05 0.04 0.04 0.05 0.05 0.04 0.03 0.04 0.06 0.07 0.08 0.09 0.09
0.06 0.05 0.04 0.04 0.04 0.04 0.04 0.03 0.03 0.03 0.04 0.05 0.04 0.04 0.04 0.04 0.05 0.04 0.03 0.03 0.03 0.02 0.03 0.05 0.06 0.06 0.06 0.05 0.05 0.05 0.05 0.05 0.04 0.03 0.03 0.04 0.05 0.07
0.04 0.04 0.04 0.04 0.05 0.05 0.04 0.04 0.04 0.04 0.06 0.06 0.06 0.06 0.06 0.06 0.05 0.04 0.03 0.03 0.02 0.02 0.02 0.03 0.04 0.05 0.05 0.05 0.04 0.04 0.04 0.03 0.03 0.03 0.02 0.02 0.03 0.03
0.04 0.03 0.04 0.05 0.05 0.05 0.05 0.05 0.05 0.05 0.06 0.06 0.06 0.04 0.05 0.05 0.05 0.05 0.04 0.04 0.03 0.02 0.03 0.03 0.03 0.03 0.03 0.03 0.03 0.03 0.03 0.03 0.03 0.04 0.03 0.03 0.03 0.03
0.02 0.02 0.03 0.03 0.03 0.04 0.05 0.04 0.04 0.04 0.04 0.04 0.04 0.03 0.03 0.03 0.04 0.05 0.06 0.06 0.04 0.03 0.05 0.05 0.04 0.04 0.04 0.03 0.03 0.03 0.04 0.05 0.04 0.04 0.04 0.05 0.05 0.04
0.02 0.02 0.02 0.02 0.02 0.03 0.03 0.03 0.04 0.04 0.04 0.03 0.03 0.02 0.03 0.03 0.03 0.04 0.04 0.05 0.05 0.04 0.04 0.05 0.06 0.06 0.06 0.06 0.06 0.06 0.05 0.04 0.02 0.02 0.02 0.03 0.05 0.07
0.01 0.02 0.02 0.02 0.02 0.02 0.03 0.02 0.02 0.02 0.03 0.03 0.03 0.03 0.04 0.04 0.04 0.05 0.05 0.05 0.04 0.04 0.05 0.06 0.07 0.08 0.09 0.10 0.08 0.05 0.04 0.04 0.04 0.04 0.06 0.07 0.09 0.08
0.03 0.03 0.02 0.02 0.02 0.02 0.02 0.02 0.01 0.01 0.01 0.02 0.02 0.03 0.04 0.05 0.04 0.05 0.06 0.08 0.06 0.04 0.05 0.07 0.10 0.11 0.11 0.10 0.08 0.06 0.06 0.05 0.06 0.06 0.04 0.04 0.04 0.03
0.05 0.04 0.03 0.03 0.03 0.03 0.02 0.02 0.02 0.01 0.02 0.02 0.02 0.03 0.04 0.05 0.05 0.06 0.07 0.07 0.06 0.06 0.06 0.07 0.10 0.11 0.11 0.11 0.09 0.07 0.07 0.06 0.05 0.04 0.03 0.02 0.02 0.02
0.07 0.08 0.06 0.04 0.04 0.04 0.03 0.03 0.03 0.03 0.03 0.03 0.03 0.04 0.04 0.05 0.06 0.06 0.07 0.06 0.05 0.06 0.06 0.08 0.09 0.10 0.10 0.09 0.09 0.08 0.07 0.06 0.06 0.05 0.04 0.03 0.03 0.03
0.03 0.06 0.08 0.06 0.03 0.03 0.03 0.04 0.04 0.05 0.04 0.04 0.04 0.04 0.03 0.03 0.04 0.04 0.05 0.05 0.05 0.06 0.07 0.08 0.09 0.10 0.11 0.09 0.08 0.08 0.08 0.06 0.06 0.06 0.05 0.05 0.04 0.04
0.02 0.02 0.03 0.03 0.03 0.03 0.03 0.03 0.02 0.02 0.02 0.02 0.02 0.02 0.03 0.03 0.03 0.03 0.03 0.04 0.06 0.07 0.06 0.04 0.05 0.08 0.08 0.09 0.10 0.08 0.07 0.07 0.07 0.06 0.06 0.07 0.06 0.05
0.02 0.02 0.03 0.03 0.04 0.05 0.05 0.05 0.04 0.03 0.03 0.02 0.01 0.01 0.02 0.03 0.03 0.03 0.04 0.04 0.04 0.04 0.03 0.03 0.05 0.06 0.07 0.07 0.08 0.08 0.08 0.08 0.08 0.08 0.07 0.07 0.05 0.04
0.04 0.04 0.05 0.05 0.06 0.07 0.07 0.06 0.04 0.03 0.03 0.02 0.02 0.02 0.02 0.03 0.03 0.03 0.04 0.04 0.03 0.03 0.03 0.03 0.04 0.05 0.07 0.07 0.08 0.09 0.08 0.08 0.08 0.08 0.07 0.07 0.07 0.05
MSLP
1011.30 1011.73 1012.17 1012.62 1013.02 1013.36 1013.59 1013.70 1013.67 1013.52 1013.27 1012.94 1012.57 1012.20 1011.87 1011.60 1011.41 1011.32 1011.31 1011.39 1011.54 1011.75 1011.98 1012.22 1012.45 1012.64 1012.80 1012.90 1012.97 1012.99 1013.00 1012.99 1012.99 1012.99 1013.01 1013.04 1013.08 1013.12
1010.58 1010.97 1011.39 1011.82 1012.24 1012.60 1012.89 1013.07 1013.13 1013.07 1012.90 1012.65 1012.35 1012.02 1011.70 1011.42 1011.20 1011.06 1011.01 1011.03 1011.13 1011.29 1011.49 1011.70 1011.91 1012.10 1012.25 1012.36 1012.43 1012.48 1012.50 1012.51 1012.53 1012.55 1012.59 1012.63 1012.68 1012.74
1009.88 1010.23 1010.62 1011.03 1011.44 1011.83 1012.15 1012.39 1012.54 1012.57 1012.50 1012.34 1012.12 1011.85 1011.57 1011.31 1011.09 1010.92 1010.83 1010.80 1010.84 1010.94 1011.08 1011.24 1011.40 1011.55 1011.68 1011.77 1011.84 1011.88 1011.91 1011.93 1011.96 1012.01 1012.06 1012.13 1012.20 1012.26
1009.22 1009.54 1009.89 1010.27 1010.67 1011.06 1011.41 1011.70 1011.91 1012.02 1012.05 1011.99 1011.85 1011.67 1011.45 1011.23 1011.03 1010.86 1010.74 1010.68 1010.67 1010.71 1010.78 1010.88 1010.98 1011.07 1011.15 1011.20 1011.24 1011.26 1011.28 1011.31 1011.35 1011.41 1011.48 1011.57 1011.65 1011.74
1008.60 1008.89 1009.20 1009.56 1009.93 1010.31 1010.66 1010.97 1011.23 1011.41 1011.51 1011.54 1011.50 1011.40 1011.27 1011.12 1010.96 1010.82 1010.71 1010.64 1010.60 1010.59 1010.61 1010.64 1010.67 1010.70 1010.72 1010.72 1010.72 1010.71 1010.72 1010.74 1010.78 1010.84 1010.93 1011.02 1011.12 1011.21
1008.01 1008.26 1008.55 1008.87 1009.21 1009.56 1009.91 1010.22 1010.49 1010.71 1010.88 1010.98 1011.02 1011.02 1010.97 1010.90 1010.82 1010.74 1010.67 1010.61 1010.57 1010.55 1010.53 1010.52 1010.50 1010.47 1010.44 1010.39 1010.34 1010.30 1010.28 1010.28 1010.32 1010.38 1010.46 1010.56 1010.66 1010.75
1007.41 1007.65 1007.92 1008.21 1008.51 1008.83 1009.14 1009.43 1009.70 1009.93 1010.13 1010.28 1010.39 1010.47 1010.52 1010.55 1010.56 1010.56 1010.55 1010.55 1010.54 1010.53 1010.51 1010.48 1010.44 1010.38 1010.30 1010.22 1010.14 1010.07 1010.02 1010.01 1010.02 1010.07 1010.15 1010.24 1010.32 1010.39
1006.79 1007.03 1007.28 1007.55 1007.83 1008.10 1008.37 1008.63 1008.87 1009.09 1009.29 1009.48 1009.64 1009.78 1009.91 1010.03 1010.14 1010.24 1010.32 1010.39 1010.45 1010.48 1010.49 1010.48 1010.44 1010.38 1010.29 1010.20 1010.10 1010.01 1009.95 1009.92 1009.92 1009.95 1010.00 1010.07 1010.12 1010.16
1006.15 1006.40 1006.65 1006.91 1007.16 1007.40 1007.63 1007.85 1008.05 1008.25 1008.44 1008.62 1008.81 1009.01 1009.20 1009.40 1009.59 1009.78 1009.96 1010.12 1010.25 1010.36 1010.43 1010.46 1010.46 1010.43 1010.36 1010.28 1010.19 1010.11 1010.04 1009.99 1009.98 1009.98 1010.01 1010.04 1010.05 1010.05
1005.51 1005.77 1006.04 1006.30 1006.54 1006.76 1006.96 1007.14 1007.31 1007.48 1007.64 1007.82 1008.02 1008.23 1008.47 1008.72 1008.99 1009.25 1009.51 1009.75 1009.97 1010.15 1010.29 1010.39 1010.45 1010.47 1010.45 1010.41 1010.35 1010.28 1010.22 1010.17 1010.14 1010.12 1010.11 1010.10 1010.07 1010.02
1004.89 1005.18 1005.47 1005.74 1005.99 1006.21 1006.41 1006.57 1006.72 1006.86 1007.00 1007.16 1007.36 1007.58 1007.83 1008.11 1008.42 1008.73 1009.04 1009.34 1009.62 1009.87 1010.09 1010.26 1010.39 1010.47 1010.52 1010.53 1010.51 1010.48 1010.43 1010.39 1010.35 1010.30 1010.26 1010.20 1010.13 1010.03
1004.34 1004.65 1004.97 1005.27 1005.55 1005.80 1006.00 1006.17 1006.32 1006.45 1006.59 1006.74 1006.92 1007.13 1007.39 1007.67 1007.98 1008.31 1008.65 1008.98 1009.30 1009.60 1009.86 1010.09 1010.28 1010.43 1010.54 1010.60 1010.64 1010.64 1010.62 1010.58 1010.53 1010.46 1010.38 1010.29 1010.18 1010.04
1003.88 1004.21 1004.56 1004.91 1005.24 1005.53 1005.77 1005.97 1006.13 1006.28 1006.42 1006.57 1006.75 1006.96 1007.20 1007.47 1007.77 1008.08 1008.41 1008.74 1009.07 1009.38 1009.67 1009.94 1010.17 1010.37 1010.53 1010.64 1010.72 1010.75 1010.75 1010.71 1010.65 1010.56 1010.45 1010.33 1010.19 1010.03
1003.54 1003.90 1004.28 1004.68 1005.05 1005.39 1005.69 1005.94 1006.15 1006.33 1006.50 1006.67 1006.85 1007.05 1007.28 1007.52 1007.79 1008.08 1008.37 1008.68 1008.98 1009.28 1009.57 1009.84 1010.10 1010.32 1010.51 1010.66 1010.76 1010.81 1010.81 1010.77 1010.69 1010.59 1010.45 1010.30 1010.14 1009.98
1003.36 1003.73 1004.15 1004.58 1005.00 1005.40 1005.75 1006.06 1006.32 1006.56 1006.77 1006.97 1007.17 1007.38 1007.59 1007.82 1008.05 1008.30 1008.55 1008.81 1009.07 1009.33 1009.60 1009.85 1010.10 1010.33 1010.52 1010.68 1010.78 1010.83 1010.83 1010.78 1010.68 1010.55 1010.39 1010.22 1010.05 1009.89
1003.36 1003.74 1004.17 1004.62 1005.08 1005.52 1005.92 1006.28 1006.60 1006.89 1007.16 1007.40 1007.63 1007.85 1008.07 1008.28 1008.49 1008.69 1008.90 1009.10 1009.31 1009.53 1009.75 1009.97 1010.19 1010.40 1010.58 1010.72 1010.81 1010.84 1010.82 1010.75 1010.63 1010.47 1010.29 1010.11 1009.93 1009.77
1003.55 1003.92 1004.35 1004.81 1005.28 1005.74 1006.17 1006.57 1006.94 1007.28 1007.59 1007.88 1008.14 1008.39 1008.61 1008.82 1009.01 1009.18 1009.34 1009.50 1009.66 1009.82 1010.00 1010.17 1010.36 1010.53 1010.67 1010.79 1010.85 1010.86 1010.81 1010.70 1010.55 1010.37 1010.17 1009.97 1009.78 1009.63
1003.94 1004.29 1004.70 1005.14 1005.59 1006.04 1006.48 1006.89 1007.28 1007.65 1008.00 1008.33 1008.63 1008.90 1009.14 1009.34 1009.52 1009.67 1009.80 1009.92 1010.03 1010.15 1010.28 1010.41 1010.55 1010.68 1010.80 1010.87 1010.90 1010.88 1010.79 1010.65 1010.47 1010.26 1010.04 1009.82 1009.63 1009.46
1004.49 1004.81 1005.19 1005.58 1006.00 1006.41 1006.82 1007.22 1007.62 1008.00 1008.36 1008.71 1009.03 1009.32 1009.57 1009.78 1009.95 1010.08 1010.19 1010.28 1010.36 1010.44 1010.53 1010.63 1010.73 1010.83 1010.90 1010.95 1010.94 1010.89 1010.77 1010.61 1010.40 1010.16 1009.92 1009.68 1009.47 1009.29
1005.14 1005.43 1005.75 1006.09 1006.45 1006.81 1007.17 1007.54 1007.92 1008.28 1008.65 1009.00 1009.33 1009.62 1009.88 1010.08 1010.25 1010.37 1010.46 1010.53 1010.58 1010.64 1010.70 1010.77 1010.85 1010.92 1010.97 1010.99 1010.96 1010.88 1010.75 1010.56 1010.33 1010.08 1009.82 1009.56 1009.33 1009.12
1005.81 1006.06 1006.32 1006.60 1006.89 1007.18 1007.50 1007.82 1008.16 1008.51 1008.85 1009.20 1009.52 1009.80 1010.05 1010.25 1010.40 1010.51 1010.58 1010.64 1010.68 1010.72 1010.76 1010.82 1010.88 1010.93 1010.97 1010.97 1010.94 1010.85 1010.71 1010.52 1010.28 1010.02 1009.74 1009.47 1009.21 1008.97
1006.36 1006.57 1006.78 1007.00 1007.22 1007.47 1007.73 1008.01 1008.31 1008.64 1008.97 1009.29 1009.60 1009.87 1010.10 1010.29 1010.43 1010.52 1010.58 1010.62 1010.64 1010.67 1010.71 1010.76 1010.81 1010.86 1010.90 1010.91 1010.88 1010.80 1010.66 1010.48 1010.25 1009.98 1009.70 1009.41 1009.13 1008.86
1006.70 1006.86 1007.03 1007.20 1007.37 1007.57 1007.80 1008.06 1008.34 1008.65 1008.96 1009.27 1009.57 1009.83 1010.05 1010.22 1010.34 1010.42 1010.47 1010.49 1010.51 1010.53 1010.57 1010.61 1010.67 1010.73 1010.78 1010.80 1010.79 1010.73 1010.61 1010.45 1010.24 1009.98 1009.70 1009.41 1009.10 1008.80
Thickness
5749 5748 5747 5746 5745 5744 5742 5738 5731 5725 5726 5732 5734 5737 5736 5735 5734 5732 5731 5729 5728 5726 5724 5722 5720 5719 5717 5715 5714 5712 5711 5710 5710 5709 5708 5708 5707 5706
5747 5746 5745 5744 5743 5742 5740 5739 5736 5730 5725 5730 5731 5732 5732 5731 5730 5728 5727 5725 5723 5722 5720 5718 5716 5714 5712 5711 5709 5708 5707 5705 5705 5704 5704 5703 5702 5701
5744 5743 5742 5742 5740 5739 5738 5736 5734 5731 5725 5727 5729 5729 5728 5727 5725 5724 5722 5720 5719 5718 5716 5714 5712 5710 5708 5706 5704 5703 5702 5701 5699 5699 5698 5698 5696 5696
5741 5739 5738 5738 5737 5736 5735 5733 5731 5730 5725 5721 5722 5722 5723 5722 5721 5719 5718 5716 5714 5713 5712 5710 5708 5706 5704 5702 5700 5698 5697 5695 5694 5693 5692 5692 5690 5689
5739 5737 5735 5734 5732 5732 5732 5731 5730 5729 5725 5720 5719 5718 5718 5717 5715 5714 5713 5711 5710 5709 5706 5705 5703 5701 5700 5698 5696 5694 5692 5690 5689 5688 5686 5685 5684 5682
5737 5735 5734 5732 5730 5729 5728 5728 5727 5724 5721 5717 5715 5714 5713 5713 5710 5707 5705 5705 5704 5703 5701 5700 5698 5696 5695 5693 5691 5689 5687 5685 5684 5682 5681 5679 5678 5676
5733 5732 5731 5731 5730 5728 5726 5724 5722 5719 5715 5713 5710 5709 5707 5706 5704 5704 5701 5699 5697 5697 5694 5693 5692 5690 5689 5687 5686 5684 5683 5681 5679 5677 5675 5674 5672 5670
5727 5727 5727 5727 5726 5725 5724 5723 5720 5716 5712 5709 5706 5704 5704 5703 5702 5699 5695 5691 5689 5691 5688 5686 5685 5684 5683 5682 5681 5680 5678 5676 5674 5672 5670 5668 5666 5664
5723 5722 5722 5723 5722 5721 5719 5718 5716 5715 5713 5709 5704 5703 5701 5701 5698 5694 5691 5689 5687 5688 5683 5680 5679 5678 5679 5678 5677 5676 5674 5672 5669 5667 5665 5663 5661 5658
5718 5717 5716 5716 5716 5714 5713 5711 5710 5709 5709 5706 5704 5703 5702 5700 5697 5693 5689 5686 5683 5682 5680 5675 5675 5674 5675 5674 5673 5671 5669 5667 5665 5662 5660 5657 5655 5652
5711 5711 5711 5709 5709 5708 5705 5703 5702 5702 5703 5702 5701 5699 5697 5695 5693 5688 5683 5678 5675 5674 5674 5671 5670 5668 5668 5668 5668 5666 5664 5662 5659 5657 5654 5652 5649 5646
5702 5703 5703 5702 5702 5700 5697 5696 5694 5694 5694 5694 5693 5692 5690 5689 5687 5684 5680 5675 5671 5669 5671 5667 5665 5662 5659 5662 5662 5660 5657 5655 5653 5650 5648 5646 5643 5639
5694 5694 5694 5693 5693 5692 5690 5689 5689 5687 5686 5685 5684 5683 5682 5681 5680 5678 5677 5674 5670 5668 5669 5665 5661 5658 5655 5653 5654 5653 5651 5648 5646 5644 5642 5640 5637 5633
5686 5686 5686 5685 5684 5683 5682 5682 5681 5679 5676 5675 5674 5674 5674 5673 5674 5673 5672 5671 5671 5669 5667 5662 5658 5655 5651 5647 5646 5646 5644 5642 5640 5637 5635 5632 5629 5626
5679 5679 5677 5676 5674 5674 5674 5673 5671 5669 5667 5666 5666 5667 5668 5667 5666 5665 5664 5663 5662 5662 5660 5658 5655 5652 5648 5645 5642 5639 5636 5635 5633 5630 5627 5625 5622 5619
5668 5668 5666 5665 5664 5664 5664 5664 5662 5661 5659 5658 5658 5659 5659 5658 5657 5656 5654 5653 5651 5651 5652 5651 5650 5646 5642 5640 5637 5634 5632 5629 5627 5624 5621 5618 5616 5614
5657 5655 5653 5652 5651 5652 5653 5653 5652 5651 5650 5650 5649 5649 5648 5648 5648 5647 5645 5643 5641 5641 5641 5641 5641 5640 5638 5635 5630 5629 5626 5624 5622 5618 5614 5610 5609 5607
5647 5644 5643 5643 5642 5642 5642 5643 5643 5642 5641 5640 5640 5640 5639 5639 5638 5638 5637 5635 5634 5633 5633 5632 5630 5627 5626 5625 5626 5623 5620 5617 5614 5611 5608 5604 5602 5601
5636 5635 5635 5635 5634 5634 5633 5633 5633 5633 5632 5630 5630 5630 5630 5629 5628 5628 5627 5626 5626 5625 5625 5624 5621 5618 5615 5615 5616 5617 5614 5611 5607 5603 5601 5599 5597 5596
5629 5628 5627 5627 5625 5624 5624 5624 5624 5623 5622 5621 5620 5620 5620 5619 5619 5618 5618 5618 5617 5616 5615 5615 5613 5612 5610 5609 5607 5606 5607 5605 5600 5597 5593 5591 5589 5588
5623 5621 5620 5618 5617 5616 5615 5615 5614 5613 5612 5611 5610 5610 5610 5610 5610 5610 5610 5609 5608 5607 5606 5606 5606 5606 5603 5600 5597 5596 5596 5597 5595 5592 5588 5583 5579 5576
5616 5615 5613 5611 5609 5608 5606 5606 5604 5603 5603 5602 5601 5601 5601 5601 5601 5601 5600 5599 5599 5598 5598 5597 5596 5594 5592 5590 5588 5587 5586 5586 5585 5584 5583 5582 5577 5573
5610 5608 5606 5604 5602 5600 5599 5597 5596 5595 5595 5594 5593 5593 5592 5592 5591 5591 5590 5590 5589 5588 5587 5586 5585 5585 5583 5582 5580 5578 5577 5576 5574 5572 5571 5572 5572 5572